Temperature
12 12 13 13 13 14 14 14 14 14 14 14 14 14 14 13 13 13 13 13 13 13 13 13 13 14 14 14 14 14 14 14 14 13 12 12 13 12 13 13 13 13 13
11 11 11 12 12 12 12 13 13 14 13 13 13 13 13 13 13 13 13 13 13 13 13 13 13 13 13 14 14 14 14 14 13 13 12 12 12 12 12 12 12 12 12
10 10 10 10 11 11 11 12 12 13 13 13 13 13 13 13 12 12 12 12 13 13 13 13 13 13 13 13 13 13 13 13 13 12 12 11 11 12 12 12 11 11 11
9 9 9 10 10 10 10 11 11 12 12 12 12 12 12 12 12 12 12 12 12 12 13 13 13 13 13 13 13 13 13 12 12 12 11 11 11 11 11 12 11 11 11
9 9 9 9 9 9 9 10 10 11 11 12 12 12 12 12 12 12 12 12 12 12 12 12 12 13 13 13 12 12 12 12 12 12 12 12 11 11 12 12 12 11 11
9 9 9 9 9 9 9 9 10 10 10 11 11 11 11 12 12 12 12 11 11 11 12 12 12 12 12 12 12 12 12 12 12 12 12 12 11 11 12 12 12 12 11
9 9 9 9 9 9 9 9 9 9 10 10 11 11 11 11 11 12 11 11 11 11 11 11 11 11 11 12 11 11 11 11 12 12 12 11 11 11 11 12 12 12 11
9 9 9 9 9 9 9 9 9 9 9 10 10 10 11 11 11 11 11 11 11 11 11 11 11 11 11 11 11 11 11 11 11 11 11 11 11 11 11 11 11 11 11
9 8 8 8 8 8 8 8 8 8 8 9 9 10 10 10 11 11 11 10 10 10 10 11 11 11 11 11 11 11 11 11 11 11 11 11 11 11 10 11 11 11 11
8 8 8 8 8 8 8 8 8 8 8 8 9 9 10 10 10 10 10 10 10 10 10 10 10 10 10 10 11 11 10 10 10 10 10 10 10 10 10 11 11 12 12
8 8 7 7 7 7 7 7 7 8 8 8 8 9 9 10 10 10 10 10 10 10 10 10 10 10 10 10 10 10 10 10 10 10 10 9 9 9 10 10 10 11 11
7 7 7 7 7 7 7 7 7 7 7 8 8 8 9 9 10 10 10 10 10 10 10 10 10 10 10 10 10 10 10 10 10 10 10 10 10 9 9 9 9 9 9
7 6 6 6 6 6 7 7 7 8 8 8 8 8 8 9 9 10 10 10 10 10 10 10 10 10 10 10 10 10 10 10 10 10 10 10 9 9 8 8 8 8 8
6 6 6 6 6 6 6 7 8 8 8 8 7 7 8 8 9 9 10 10 10 10 10 10 10 10 10 10 10 10 10 10 10 10 10 9 9 8 9 9 9 9 9
6 6 6 6 6 6 6 7 7 7 8 7 7 7 7 8 9 9 9 9 9 10 10 9 9 9 9 9 9 10 10 10 10 10 9 9 9 9 9 9 9 9 9
5 5 5 5 5 6 6 7 7 7 7 7 7 7 7 8 9 9 9 10 10 10 10 10 10 10 10 10 10 10 10 10 10 9 9 9 9 9 9 9 9 10 9
4 5 5 5 5 5 6 6 7 7 7 7 7 7 7 7 8 9 9 10 10 10 10 10 10 10 10 10 10 10 10 10 9 10 10 9 9 9 9 9 9 9 9
4 4 4 4 4 5 5 6 6 7 7 6 6 7 7 8 8 9 9 9 9 10 11 11 10 10 10 10 10 10 10 9 9 9 9 9 9 9 9 9 9 9 9
4 4 4 4 4 5 5 6 6 6 6 6 6 7 7 8 8 9 9 9 9 10 11 11 11 11 11 10 10 10 10 9 9 9 9 9 9 9 9 10 9 8 9
4 4 4 4 5 5 5 6 6 6 6 6 6 7 7 8 8 8 9 9 10 10 11 11 11 11 11 10 10 10 10 10 9 9 9 9 9 10 9 9 9 9 9
4 4 4 4 5 5 6 6 6 6 6 6 6 7 7 8 8 8 9 10 10 11 11 11 11 11 11 10 10 10 10 10 10 10 10 9 9 9 9 9 9 9 9
4 4 4 5 5 5 6 6 6 6 6 6 7 7 8 8 9 9 10 10 11 11 11 11 11 11 11 11 11 10 10 10 10 10 10 10 9 9 10 10 9 9 9
4 4 5 5 5 6 6 6 6 6 6 7 7 7 8 9 10 10 10 11 11 11 11 11 11 11 11 11 11 11 11 11 10 10 10 10 10 10 10 10 9 9 9
5 5 5 6 6 6 6 6 6 6 7 7 8 8 9 10 10 10 11 11 11 11 11 11 11 11 11 11 11 11 11 11 10 10 10 10 10 10 10 10 10 10 10
5 5 6 6 6 6 6 6 6 7 7 8 8 9 10 10 11 11 11 11 11 11 11 11 11 11 11 11 11 11 11 10 10 10 10 10 10 10 10 10 10 10 10
6 6 6 6 6 7 7 7 7 8 8 9 9 9 10 10 11 11 11 11 11 11 10 11 11 11 11 10 11 11 11 10 10 10 10 10 10 10 10 10 10 10 10
Wind_Speed
13 13 13 12 12 12 11 12 12 12 11 11 11 11 12 12 12 12 13 13 13 12 12 11 11 10 8 7 6 5 5 5 6 4 3 4 5 7 7 8 10 10 13
13 13 13 14 13 13 13 14 13 13 12 12 12 11 12 12 11 12 12 11 11 11 10 10 9 7 7 5 5 5 4 5 9 9 5 4 5 7 8 8 9 11 12
12 12 13 14 14 14 15 15 14 13 13 13 12 11 11 11 10 10 10 9 8 8 8 7 7 6 6 5 5 6 6 8 8 10 8 5 5 7 9 10 10 9 12
11 11 11 12 12 14 15 15 15 14 13 13 13 11 10 10 9 9 8 7 5 4 4 4 4 5 6 6 7 8 9 10 10 9 9 7 7 7 7 9 9 8 9
12 12 12 12 12 13 14 15 15 14 14 13 13 12 10 8 7 6 6 5 3 1 1 1 2 5 6 6 7 9 11 10 9 9 9 8 8 7 7 7 9 9 8
15 15 15 14 14 14 14 14 14 14 14 13 13 12 10 7 1 2 5 3 1 1 3 5 7 8 11 13 12 10 8 10 10 9 8 9 8 7 7 7 9 8 7
17 17 17 17 16 15 15 14 14 14 13 13 12 11 10 6 5 2 2 2 2 3 5 6 7 8 11 12 14 14 12 10 7 7 11 10 9 8 8 7 7 8 8
19 19 18 18 17 16 15 15 14 12 12 12 12 11 10 8 9 6 4 4 5 5 6 8 9 9 10 12 13 13 11 9 7 9 11 10 10 8 7 9 10 10 8
20 19 19 18 18 17 16 15 14 12 11 11 11 11 11 9 11 10 8 7 7 7 7 8 10 11 11 12 14 14 13 11 14 17 15 13 13 9 4 7 8 8 8
20 19 18 18 18 18 17 16 14 12 11 11 10 11 12 11 13 13 11 8 9 8 8 8 10 12 11 10 13 14 13 12 13 13 12 11 11 8 5 3 4 6 8
20 19 19 18 18 18 17 15 14 12 11 10 10 10 11 11 13 14 12 8 11 11 10 10 9 10 9 6 8 11 13 13 12 12 11 10 9 8 8 8 8 6 6
20 20 19 18 17 16 16 15 14 12 11 9 8 8 8 9 12 13 12 8 7 11 11 10 10 11 9 7 8 13 13 11 10 9 9 9 9 9 9 10 11 11 10
21 20 19 18 17 16 16 16 14 12 10 8 6 6 6 8 10 14 13 9 6 8 9 13 15 15 13 10 13 13 11 9 9 9 9 9 9 10 9 9 10 10 10
21 20 18 17 17 16 14 14 13 12 9 8 5 6 6 7 10 12 12 10 11 11 12 14 14 11 10 12 12 10 8 8 8 9 9 9 9 8 8 8 8 8 8
20 18 17 16 16 15 14 13 14 12 9 8 6 6 6 8 11 16 16 15 15 15 15 13 12 12 12 12 11 9 9 9 8 9 9 9 9 8 7 7 6 6 7
17 16 14 13 12 13 13 13 13 13 10 10 10 9 9 8 8 15 16 16 17 20 17 14 14 13 13 13 12 11 10 10 9 10 9 9 9 8 8 7 6 6 6
17 15 12 12 12 12 12 12 11 10 12 13 13 14 13 10 13 16 17 19 20 19 14 14 13 13 13 12 12 11 11 10 9 9 9 9 8 8 8 7 6 6 6
16 15 13 11 12 12 12 12 11 9 7 7 9 13 14 15 17 19 21 19 16 16 14 14 14 13 13 12 12 11 11 11 10 9 9 9 8 8 8 7 6 6 6
13 10 10 11 11 11 11 11 10 9 8 6 5 6 12 15 18 21 23 18 18 16 14 14 14 13 13 12 12 11 12 11 10 10 9 9 8 8 8 7 7 5 3
10 13 12 10 10 10 10 10 9 8 7 6 6 7 11 13 14 17 18 18 17 16 14 14 14 14 13 13 12 12 12 11 11 10 10 9 8 8 8 8 8 7 5
8 9 12 11 10 10 10 9 8 6 5 5 7 11 17 17 19 21 20 17 17 16 15 14 14 14 13 13 12 13 13 12 11 10 10 9 9 8 8 8 7 6 5
6 6 7 8 8 9 8 7 5 5 5 6 7 12 19 18 19 20 19 17 16 15 15 14 14 14 14 13 13 13 13 12 12 11 10 10 9 9 8 8 7 7 6
5 6 6 7 7 7 7 6 5 5 5 7 11 15 17 17 18 19 18 16 15 14 14 14 14 14 14 13 13 13 13 13 12 12 11 11 10 9 8 8 8 8 7
3 4 4 5 5 5 5 5 5 6 7 10 14 17 17 16 18 19 18 15 15 14 14 14 14 16 18 15 13 13 13 12 13 13 14 12 11 10 10 9 9 10 9
1 2 3 3 3 3 3 4 5 6 8 13 15 17 17 16 17 18 17 15 15 14 16 15 13 15 19 19 16 14 12 11 9 10 13 12 12 12 11 11 10 10 11
1 1 1 1 2 2 3 3 4 7 11 13 15 16 16 15 16 16 16 15 14 14 14 14 15 16 17 18 17 13 13 14 12 9 10 12 13 12 12 12 13 13 13
Wind_Direction
353 347 342 337 331 322 307 294 284 276 272 270 274 280 286 291 293 292 288 283 275 269 262 255 252 246 237 227 217 211 205 184 145 111 96 97 102 107 106 105 103 94 84
343 340 338 335 333 328 319 308 296 283 273 268 269 274 280 287 292 292 292 289 280 272 262 251 245 233 220 214 193 182 163 147 138 130 119 109 105 107 107 106 101 95 92
329 328 330 329 329 327 321 313 301 288 276 269 265 267 275 284 288 291 292 290 287 278 265 247 234 216 202 184 167 149 133 126 126 130 126 125 123 122 114 103 98 101 100
311 309 311 313 315 317 316 312 304 291 279 270 262 262 268 276 282 287 290 290 291 290 277 249 224 201 180 159 145 135 128 126 127 130 132 132 126 130 129 122 113 103 101
295 294 295 298 302 304 307 309 307 296 282 271 262 257 257 262 271 284 284 281 284 293 46 104 113 108 110 121 133 135 136 136 138 137 136 136 137 147 137 128 118 115 105
293 292 292 292 292 296 301 304 307 305 293 276 262 254 248 248 122 313 286 261 242 143 112 101 99 102 101 95 97 103 122 141 143 142 141 135 135 135 132 140 143 135 116
293 290 289 290 291 292 296 300 304 307 304 286 264 252 242 217 155 198 261 236 151 128 122 116 107 109 115 114 102 92 81 77 107 131 131 131 130 131 139 128 102 101 97
292 290 289 288 288 290 291 293 296 301 302 294 273 250 236 205 169 177 189 169 132 120 119 118 117 119 118 122 120 112 103 87 93 105 110 109 109 108 107 108 113 115 112
290 290 289 289 288 288 286 288 292 293 297 296 285 258 233 201 175 179 193 158 136 125 122 122 124 124 122 125 123 119 112 98 73 74 78 83 70 59 80 143 153 141 122
289 289 288 286 284 284 283 283 285 284 286 293 287 270 238 210 178 182 198 167 147 139 129 125 125 128 134 139 134 130 125 122 118 110 103 111 106 92 47 88 138 135 130
288 286 284 282 280 278 276 274 275 276 281 288 286 274 248 213 178 184 202 182 159 154 149 146 136 128 134 142 148 137 134 134 132 129 124 120 115 110 98 74 51 65 92
286 283 280 279 279 277 272 270 270 272 274 277 283 277 252 213 182 183 192 204 175 162 157 150 139 138 137 139 133 127 140 152 144 139 132 126 119 108 95 85 75 71 71
283 280 278 277 275 272 269 266 264 260 263 272 278 267 244 215 178 167 176 178 178 164 143 123 132 138 134 124 128 143 163 160 147 141 133 123 113 110 114 111 105 102 95
279 276 273 272 271 268 262 259 259 258 255 258 266 261 235 215 186 174 173 165 147 137 127 125 133 146 134 124 145 165 170 152 148 138 130 127 130 140 142 137 135 133 120
276 273 270 269 269 269 264 257 258 258 256 251 252 254 237 214 193 177 173 173 169 153 146 148 151 153 152 155 159 157 149 147 146 140 140 144 144 140 134 127 126 128 121
276 272 266 264 264 263 261 258 238 236 211 208 229 237 240 223 182 173 171 157 143 148 158 159 161 163 161 160 159 157 157 154 151 149 151 149 145 141 138 139 140 127 118
272 269 263 260 260 259 256 254 253 232 209 212 222 225 224 197 173 167 156 144 147 161 170 163 165 164 162 160 160 159 155 149 152 155 154 151 148 146 145 144 138 132 123
270 264 257 253 254 254 253 251 252 250 236 227 219 213 201 182 170 159 146 146 161 179 176 167 166 164 162 161 159 156 150 152 161 159 156 155 155 153 151 151 145 140 134
267 259 250 247 247 246 246 247 247 244 240 235 219 191 176 163 157 154 157 170 174 183 178 170 168 166 165 163 159 157 156 160 163 163 159 161 162 161 159 156 137 126 160
263 253 248 245 241 241 242 242 239 233 229 224 206 177 159 156 162 167 178 181 178 183 179 172 171 169 167 166 163 164 163 162 164 173 164 170 172 170 165 164 157 167 172
256 244 234 237 237 237 238 237 234 224 221 214 195 174 168 170 169 174 182 182 181 182 180 175 172 173 172 170 170 171 170 168 173 176 169 175 177 175 174 174 174 179 171
247 237 227 228 231 235 236 231 223 216 221 207 182 166 172 172 170 175 182 181 181 181 179 178 177 177 177 177 176 176 177 177 178 179 177 178 180 182 184 185 188 190 189
246 231 227 226 226 222 228 225 215 218 225 202 170 163 172 174 171 176 181 180 179 178 178 181 182 180 180 181 182 183 185 184 184 183 184 185 188 192 195 197 202 207 213
236 228 225 224 224 222 220 213 213 218 211 177 160 163 172 174 171 175 180 179 177 177 178 183 186 183 180 182 186 190 191 188 188 189 195 198 199 201 204 208 216 223 227
262 234 231 233 228 226 217 208 213 205 175 157 157 163 170 171 171 174 177 178 177 178 180 183 187 185 184 189 193 196 172 165 190 199 194 208 215 216 220 222 227 233 237
331 272 262 249 235 214 203 196 188 162 151 153 159 165 169 169 170 171 174 176 177 178 181 186 190 188 188 194 200 187 157 166 186 218 220 212 219 225 228 234 239 241 246
Height
1491 1488 1485 1482 1479 1477 1475 1473 1470 1469 1467 1464 1462 1460 1457 1453 1450 1446 1442 1439 1436 1433 1432 1431 1431 1431 1431 1432 1433 1435 1436 1439 1441 1444 1446 1448 1450 1451 1452 1454 1455 1456 1457
1487 1484 1480 1477 1474 1471 1469 1466 1464 1462 1460 1459 1456 1454 1451 1448 1445 1441 1437 1434 1431 1429 1427 1427 1427 1427 1428 1429 1430 1432 1434 1436 1439 1441 1445 1448 1450 1452 1453 1455 1457 1458 1458
1481 1478 1475 1472 1468 1465 1462 1460 1457 1455 1453 1452 1450 1448 1446 1443 1440 1437 1433 1430 1427 1425 1424 1423 1423 1424 1425 1427 1429 1431 1432 1435 1438 1441 1445 1448 1450 1453 1455 1457 1459 1460 1461
1475 1472 1469 1465 1462 1459 1456 1454 1451 1449 1446 1445 1444 1442 1440 1438 1435 1432 1429 1426 1424 1422 1421 1420 1421 1423 1424 1426 1428 1430 1432 1435 1438 1442 1446 1449 1452 1455 1457 1459 1461 1462 1464
1470 1467 1463 1460 1457 1454 1451 1448 1445 1442 1440 1438 1437 1436 1434 1433 1431 1428 1426 1424 1422 1420 1419 1418 1419 1421 1423 1426 1428 1430 1433 1436 1440 1443 1447 1450 1453 1456 1458 1461 1462 1464 1465
1465 1461 1458 1455 1453 1450 1446 1443 1439 1436 1433 1431 1430 1429 1429 1428 1426 1424 1423 1422 1420 1419 1418 1418 1419 1420 1423 1426 1429 1432 1435 1438 1441 1444 1448 1451 1454 1457 1459 1462 1464 1465 1467
1458 1455 1452 1449 1446 1444 1441 1437 1434 1430 1426 1425 1424 1423 1423 1423 1422 1421 1420 1420 1419 1419 1419 1419 1420 1421 1423 1427 1430 1434 1437 1441 1444 1447 1449 1452 1454 1457 1460 1462 1464 1465 1467
1451 1447 1444 1442 1439 1436 1434 1431 1428 1425 1421 1419 1417 1417 1417 1417 1418 1419 1419 1419 1419 1419 1419 1420 1422 1424 1426 1429 1432 1436 1440 1443 1447 1449 1451 1453 1456 1458 1460 1462 1463 1465 1468
1443 1440 1437 1434 1431 1429 1427 1424 1422 1419 1415 1413 1411 1411 1412 1412 1414 1416 1417 1418 1419 1419 1420 1422 1424 1427 1429 1432 1435 1438 1442 1446 1449 1451 1453 1455 1457 1459 1461 1464 1466 1468 1469
1435 1432 1429 1426 1423 1421 1419 1416 1415 1413 1410 1407 1405 1404 1406 1408 1409 1412 1415 1417 1418 1420 1421 1424 1427 1429 1433 1436 1439 1442 1445 1448 1451 1453 1455 1457 1459 1461 1462 1465 1467 1468 1469
1426 1423 1420 1417 1415 1412 1410 1409 1408 1406 1404 1402 1400 1399 1399 1403 1405 1409 1412 1416 1418 1420 1423 1425 1428 1432 1436 1439 1442 1445 1447 1450 1453 1455 1458 1460 1461 1463 1464 1465 1466 1468 1469
1416 1413 1410 1408 1406 1404 1403 1402 1401 1399 1398 1396 1394 1393 1394 1397 1401 1405 1410 1414 1418 1420 1423 1427 1430 1434 1437 1441 1444 1446 1449 1452 1455 1457 1460 1462 1463 1465 1465 1466 1466 1467 1468
1406 1403 1400 1399 1397 1396 1395 1394 1393 1393 1392 1391 1389 1388 1389 1391 1396 1402 1407 1412 1416 1420 1423 1427 1430 1435 1438 1442 1444 1447 1451 1454 1456 1458 1460 1462 1464 1465 1467 1467 1468 1469 1471
1394 1392 1390 1389 1388 1387 1386 1386 1386 1386 1385 1385 1384 1384 1384 1387 1392 1398 1404 1409 1414 1419 1422 1426 1431 1435 1439 1442 1445 1448 1452 1455 1457 1459 1461 1463 1465 1467 1469 1470 1471 1473 1473
1383 1382 1380 1379 1378 1377 1377 1377 1378 1378 1379 1379 1379 1379 1381 1384 1388 1394 1400 1407 1413 1417 1421 1426 1431 1435 1439 1442 1446 1449 1452 1454 1457 1459 1462 1464 1466 1468 1470 1471 1472 1474 1475
1372 1371 1370 1369 1369 1369 1369 1369 1369 1370 1371 1371 1372 1374 1376 1380 1385 1392 1399 1406 1411 1416 1421 1426 1430 1435 1438 1442 1445 1448 1451 1454 1457 1460 1462 1465 1467 1469 1470 1472 1473 1474 1475
1361 1360 1360 1360 1360 1360 1361 1361 1362 1362 1363 1364 1365 1366 1370 1375 1381 1389 1397 1405 1410 1416 1421 1425 1429 1433 1437 1441 1444 1448 1451 1454 1457 1460 1463 1465 1467 1469 1471 1472 1474 1475 1476
1350 1350 1350 1350 1351 1352 1353 1354 1355 1355 1356 1356 1357 1359 1364 1370 1379 1386 1395 1403 1410 1416 1420 1424 1428 1432 1436 1440 1443 1447 1450 1454 1457 1460 1463 1465 1467 1469 1471 1473 1474 1475 1476
1340 1340 1341 1341 1342 1344 1345 1346 1347 1348 1349 1350 1351 1354 1359 1367 1376 1385 1393 1401 1407 1413 1418 1423 1427 1431 1435 1439 1443 1446 1450 1453 1457 1460 1462 1465 1467 1469 1471 1473 1474 1474 1476
1331 1332 1333 1334 1336 1337 1338 1340 1341 1342 1344 1345 1346 1349 1355 1363 1372 1381 1391 1399 1406 1411 1416 1421 1426 1430 1434 1438 1442 1446 1449 1453 1456 1459 1462 1464 1467 1469 1471 1472 1474 1475 1476
1324 1325 1326 1328 1330 1331 1333 1334 1336 1337 1338 1339 1342 1346 1353 1362 1370 1379 1389 1397 1403 1409 1414 1419 1424 1428 1433 1437 1441 1445 1448 1452 1455 1458 1461 1463 1466 1468 1470 1472 1473 1474 1475
1319 1320 1322 1323 1325 1327 1328 1330 1331 1332 1334 1336 1339 1345 1353 1362 1371 1380 1388 1395 1401 1407 1412 1417 1422 1426 1431 1435 1439 1443 1447 1450 1453 1457 1460 1462 1465 1467 1469 1471 1472 1473 1474
1316 1317 1318 1320 1322 1323 1325 1326 1327 1328 1330 1333 1337 1344 1353 1362 1371 1379 1387 1394 1400 1405 1410 1415 1420 1424 1429 1433 1437 1441 1445 1448 1452 1455 1458 1461 1463 1465 1467 1469 1470 1471 1472
1315 1316 1317 1318 1319 1321 1322 1323 1324 1325 1327 1331 1337 1346 1355 1363 1371 1379 1386 1393 1398 1403 1408 1413 1418 1422 1426 1431 1435 1439 1443 1446 1450 1453 1456 1459 1461 1463 1465 1466 1467 1468 1469
1316 1316 1317 1317 1318 1318 1319 1320 1321 1323 1327 1332 1339 1348 1356 1364 1371 1379 1385 1391 1397 1402 1406 1411 1416 1420 1424 1428 1433 1437 1440 1443 1447 1451 1453 1456 1458 1460 1462 1463 1464 1465 1465
1317 1317 1317 1317 1317 1317 1317 1318 1320 1324 1329 1335 1342 1350 1358 1365 1372 1378 1384 1390 1395 1400 1405 1409 1414 1418 1422 1426 1430 1434 1437 1440 1444 1447 1450 1453 1455 1457 1458 1459 1460 1460 1460